• In Hungary
  • List of Countries
  • For 7 days
  • Water Temperature
  • Satellite Maps
  • Weather Map
  • News
  • Weather Widgets
  • user-avatar
    Login

    Hourly Weather Nakonowo

    Today, 19 September, Wednesday

    Time Temperature Precipitation Wind Pressure Humidity
    00:00 +19°C° 0 mm 3 mps 755 mmHg 70%
    01:00 +19°C° 0 mm 3 mps 755 mmHg 72%
    02:00 +19°C° 0 mm 3 mps 755 mmHg 73%
    03:00 +18°C° 0 mm 3 mps 755 mmHg 73%
    04:00 +18°C° 0 mm 3 mps 755 mmHg 73%
    05:00 +18°C° 0 mm 3 mps 755 mmHg 71%
    06:00 +19°C° 0 mm 3 mps 755 mmHg 69%
    07:00 +19°C° 0 mm 3 mps 755 mmHg 67%
    08:00 +21°C° 0 mm 3 mps 755 mmHg 62%
    09:00 +24°C° 0 mm 3 mps 756 mmHg 57%
    10:00 +26°C° 0 mm 3 mps 756 mmHg 52%
    11:00 +27°C° 0 mm 3 mps 756 mmHg 49%
    12:00 +28°C° 0 mm 3 mps 756 mmHg 46%
    13:00 +30°C° 0 mm 3 mps 756 mmHg 44%
    14:00 +30°C° 0 mm 3 mps 756 mmHg 44%
    15:00 +30°C° 0 mm 3 mps 756 mmHg 45%
    16:00 +29°C° 0 mm 2 mps 756 mmHg 46%
    17:00 +28°C° 0 mm 2 mps 756 mmHg 51%
    18:00 +26°C° 0 mm 2 mps 756 mmHg 56%
    19:00 +24°C° 0 mm 2 mps 756 mmHg 60%
    20:00 +24°C° 0 mm 1 mps 756 mmHg 62%
    21:00 +23°C° 0 mm 1 mps 757 mmHg 64%
    22:00 +22°C° 0 mm 1 mps 757 mmHg 66%
    23:00 +22°C° 0 mm 1 mps 757 mmHg 67%

    Tomorrow, 20 September, Thursday

    Time Temperature Precipitation Wind Pressure Humidity
    00:00 +21°C° 0 mm 1 mps 757 mmHg 68%
    01:00 +21°C° 0 mm 1 mps 757 mmHg 70%
    02:00 +21°C° 0 mm 1 mps 757 mmHg 71%
    03:00 +19°C° 0 mm 2 mps 756 mmHg 73%
    04:00 +19°C° 0 mm 2 mps 756 mmHg 75%
    05:00 +20°C° 0 mm 2 mps 756 mmHg 74%
    06:00 +20°C° 0 mm 2 mps 757 mmHg 73%
    07:00 +21°C° 0 mm 2 mps 757 mmHg 73%
    08:00 +24°C° 0 mm 3 mps 757 mmHg 66%
    09:00 +26°C° 0 mm 3 mps 757 mmHg 59%
    10:00 +28°C° 0 mm 3 mps 757 mmHg 53%
    11:00 +28°C° 0 mm 3 mps 757 mmHg 50%
    12:00 +29°C° 0 mm 4 mps 757 mmHg 46%
    13:00 +30°C° 0 mm 4 mps 756 mmHg 43%
    14:00 +30°C° 0 mm 3 mps 756 mmHg 44%
    15:00 +30°C° 0 mm 3 mps 756 mmHg 45%
    16:00 +29°C° 0 mm 3 mps 756 mmHg 46%
    17:00 +28°C° 0 mm 2 mps 756 mmHg 51%
    18:00 +26°C° 0 mm 2 mps 756 mmHg 57%
    19:00 +24°C° 0 mm 1 mps 756 mmHg 62%
    20:00 +24°C° 0 mm 1 mps 756 mmHg 63%
    21:00 +23°C° 0 mm 2 mps 756 mmHg 65%
    22:00 +23°C° 0 mm 2 mps 756 mmHg 67%
    23:00 +21°C° 0 mm 2 mps 756 mmHg 67%

    Day after tomorrow, 21 September, Friday

    Time Temperature Precipitation Wind Pressure Humidity
    00:00 +21°C° 0 mm 2 mps 756 mmHg 67%
    01:00 +20°C° 0 mm 2 mps 755 mmHg 68%
    02:00 +20°C° 0 mm 3 mps 755 mmHg 67%
    03:00 +20°C° 0 mm 3 mps 755 mmHg 67%
    04:00 +19°C° 0 mm 3 mps 755 mmHg 66%
    05:00 +20°C° 0 mm 3 mps 755 mmHg 66%
    06:00 +20°C° 0 mm 3 mps 754 mmHg 65%
    07:00 +20°C° 0 mm 4 mps 754 mmHg 65%
    08:00 +22°C° 0 mm 4 mps 754 mmHg 59%
    09:00 +25°C° 0 mm 5 mps 753 mmHg 54%
    10:00 +27°C° 0 mm 6 mps 753 mmHg 49%
    11:00 +28°C° 0 mm 6 mps 753 mmHg 45%
    12:00 +29°C° 0 mm 7 mps 752 mmHg 42%
    13:00 +30°C° 0 mm 7 mps 751 mmHg 38%
    14:00 +30°C° 0 mm 7 mps 751 mmHg 39%
    15:00 +29°C° 0 mm 6 mps 750 mmHg 39%
    16:00 +29°C° 0 mm 6 mps 749 mmHg 39%
    17:00 +28°C° 0 mm 6 mps 749 mmHg 42%
    18:00 +26°C° 0 mm 6 mps 749 mmHg 45%
    19:00 +24°C° 0 mm 6 mps 749 mmHg 48%
    20:00 +24°C° 0 mm 6 mps 749 mmHg 50%
    21:00 +24°C° 0 mm 7 mps 750 mmHg 51%
    22:00 +24°C° 0 mm 7 mps 750 mmHg 53%
    23:00 +21°C° 0.2 mm 7 mps 751 mmHg 58%

    22 September, Saturday

    Time Temperature Precipitation Wind Pressure Humidity
    00:00 +17°C° 0.2 mm 7 mps 752 mmHg 63%
    01:00 +14°C° 0.2 mm 6 mps 752 mmHg 68%
    02:00 +13°C° 0.5 mm 6 mps 753 mmHg 71%
    03:00 +13°C° 0.5 mm 5 mps 754 mmHg 73%
    04:00 +12°C° 0.5 mm 4 mps 755 mmHg 76%
    05:00 +12°C° 0.2 mm 5 mps 755 mmHg 74%
    06:00 +12°C° 0.2 mm 5 mps 756 mmHg 72%
    07:00 +13°C° 0.2 mm 5 mps 756 mmHg 71%
    08:00 +13°C° 0 mm 5 mps 756 mmHg 67%
    09:00 +13°C° 0 mm 5 mps 757 mmHg 63%
    10:00 +14°C° 0 mm 5 mps 757 mmHg 58%
    11:00 +14°C° 0 mm 6 mps 757 mmHg 55%
    12:00 +15°C° 0 mm 6 mps 757 mmHg 52%
    13:00 +16°C° 0 mm 6 mps 757 mmHg 49%
    14:00 +16°C° 0.1 mm 6 mps 756 mmHg 48%
    15:00 +16°C° 0.1 mm 5 mps 756 mmHg 47%
    16:00 +16°C° 0.1 mm 5 mps 756 mmHg 47%
    17:00 +15°C° 0.1 mm 5 mps 756 mmHg 51%
    18:00 +14°C° 0.1 mm 4 mps 757 mmHg 55%
    19:00 +13°C° 0.1 mm 3 mps 757 mmHg 59%
    20:00 +12°C° 0 mm 3 mps 757 mmHg 62%
    21:00 +12°C° 0 mm 3 mps 757 mmHg 64%
    22:00 +11°C° 0 mm 4 mps 757 mmHg 66%
    23:00 +11°C° 0 mm 4 mps 757 mmHg 67%

    23 September, Sunday

    Time Temperature Precipitation Wind Pressure Humidity
    00:00 +10°C° 0 mm 4 mps 757 mmHg 69%
    01:00 +10°C° 0 mm 4 mps 757 mmHg 70%
    02:00 +10°C° 0 mm 4 mps 758 mmHg 71%
    03:00 +8°C° 0 mm 4 mps 758 mmHg 73%
    04:00 +8°C° 0 mm 4 mps 758 mmHg 74%
    05:00 +8°C° 0 mm 4 mps 758 mmHg 73%
    06:00 +9°C° 0 mm 5 mps 758 mmHg 71%
    07:00 +9°C° 0 mm 5 mps 758 mmHg 69%
    08:00 +10°C° 0 mm 5 mps 758 mmHg 63%
    09:00 +13°C° 0 mm 5 mps 758 mmHg 56%
    10:00 +14°C° 0 mm 6 mps 758 mmHg 50%
    11:00 +15°C° 0 mm 5 mps 757 mmHg 47%
    12:00 +16°C° 0 mm 5 mps 757 mmHg 43%
    13:00 +16°C° 0 mm 5 mps 756 mmHg 40%
    14:00 +17°C° 0 mm 4 mps 756 mmHg 40%
    15:00 +17°C° 0 mm 4 mps 755 mmHg 40%
    16:00 +17°C° 0 mm 3 mps 754 mmHg 40%
    17:00 +16°C° 0.1 mm 3 mps 753 mmHg 44%
    18:00 +14°C° 0.1 mm 4 mps 752 mmHg 47%
    19:00 +13°C° 0.1 mm 4 mps 751 mmHg 51%
    20:00 +13°C° 2.2 mm 4 mps 751 mmHg 61%
    21:00 +12°C° 2.2 mm 5 mps 750 mmHg 72%
    22:00 +10°C° 2.2 mm 5 mps 749 mmHg 83%
    23:00 +10°C° 1.9 mm 6 mps 747 mmHg 83%

    24 September, Monday

    Time Temperature Precipitation Wind Pressure Humidity
    00:00 +10°C° 1.9 mm 7 mps 745 mmHg 82%
    01:00 +10°C° 1.9 mm 9 mps 743 mmHg 82%
    02:00 +11°C° 2.7 mm 8 mps 742 mmHg 84%
    03:00 +11°C° 2.7 mm 8 mps 740 mmHg 85%
    04:00 +12°C° 2.7 mm 8 mps 739 mmHg 87%
    05:00 +12°C° 0.7 mm 8 mps 739 mmHg 83%
    06:00 +12°C° 0.7 mm 8 mps 738 mmHg 78%
    07:00 +14°C° 0.7 mm 7 mps 738 mmHg 74%
    08:00 +12°C° 0.4 mm 8 mps 738 mmHg 76%
    09:00 +12°C° 0.4 mm 8 mps 737 mmHg 77%
    10:00 +11°C° 0.4 mm 8 mps 737 mmHg 78%
    11:00 +12°C° 0.6 mm 9 mps 737 mmHg 79%
    12:00 +12°C° 0.6 mm 9 mps 737 mmHg 79%
    13:00 +13°C° 0.6 mm 9 mps 737 mmHg 79%
    14:00 +12°C° 0.3 mm 9 mps 737 mmHg 80%
    15:00 +12°C° 0.3 mm 9 mps 738 mmHg 81%
    16:00 +11°C° 0.3 mm 10 mps 738 mmHg 81%
    17:00 +11°C° 0.7 mm 11 mps 739 mmHg 80%
    18:00 +10°C° 0.7 mm 12 mps 740 mmHg 79%
    19:00 +10°C° 0.7 mm 14 mps 741 mmHg 77%
    20:00 +10°C° 0.9 mm 14 mps 743 mmHg 77%
    21:00 +9°C° 0.9 mm 14 mps 744 mmHg 77%
    22:00 +9°C° 0.9 mm 14 mps 746 mmHg 77%
    23:00 +9°C° 0.3 mm 13 mps 747 mmHg 77%
    Show more